Simultaneous Nadir Overpasses (SNOs) Predictions

Prediction of SNOs between FY3D and TERRA Satellite Orbit:

Table of predicted SNOs for the next 14.0 days since TLE Epoch: 2/12/2022
Index Date (FY3D) Time (FY3D) Lat,Lon (FY3D) SZA (FY3D ) Date (TERRA) Time (TERRA) Lat,Lon (TERRA) SZA (TERRA ) Distance(km) Time Diff (sec)
1 02/12/2022 12:10:33 70.87, -2.72 84.41 02/12/2022 12:10:54 70.89, -2.76 84.42 2.38 21
2 02/12/2022 13:01:16 -70.79, 164.74 95.70 02/12/2022 13:00:24 -70.77, 164.69 95.71 2.79 52
3 02/15/2022 02:47:07 71.43, 137.25 84.10 02/15/2022 02:48:17 71.33, 138.53 83.96 47.11 70
4 02/15/2022 03:37:41 -70.88, -54.49 96.49 02/15/2022 03:37:53 -70.88, -54.53 96.49 1.58 12
5 02/15/2022 04:28:26 70.78, 112.98 83.40 02/15/2022 04:27:20 70.78, 112.96 83.41 0.96 66
6 02/17/2022 18:14:09 -71.13, 86.01 97.14 02/17/2022 18:15:20 -71.09, 86.40 97.19 14.40 71
7 02/17/2022 19:04:51 70.87,-106.25 82.59 02/17/2022 19:04:49 70.88,-106.29 82.59 1.79 2
8 02/17/2022 19:55:32 -70.69, 61.37 97.62 02/17/2022 19:54:20 -70.71, 61.09 97.59 10.84 72
9 02/20/2022 09:41:16 70.97, 34.52 81.76 02/20/2022 09:42:18 70.96, 34.44 81.75 2.82 62
10 02/20/2022 10:31:59 -70.89,-158.04 98.34 02/20/2022 10:31:47 -70.90,-158.01 98.33 1.69 12
11 02/20/2022 11:22:33 70.21, 10.37 80.95 02/20/2022 11:21:24 70.24, 8.66 81.03 64.73 69
12 02/23/2022 01:08:23 -70.99, -17.28 99.19 02/23/2022 01:09:15 -70.97, -17.30 99.21 1.73 52
13 02/23/2022 01:59:08 70.88, 150.20 80.70 02/23/2022 01:58:42 70.86, 150.18 80.68 2.58 26
14 02/25/2022 16:35:33 70.99, -69.05 79.84 02/25/2022 16:36:10 70.97, -69.04 79.82 1.59 37
15 02/25/2022 17:26:15 -70.86, 98.48 100.31 02/25/2022 17:25:40 -70.87, 98.42 100.30 1.98 35



Historial Predications of SNOs between FY3D and TERRA
